Volver al catálogo

DELTA 1 DEB

ActivoSSO
NORAD 7056·DEBRIS·🇺🇸 United States

Lanzado Nov 6, 1973 desde Vandenberg Space Force Base

Loading…

Próximos Pases (próximas 24 horas)

TLE

ActualizadoSource: Space-Track

Época: Sep 14, 2026, 12:07 UTC

1 07056U 73086AY  26257.50549647 -.00000035  00000-0  10841-3 0  9990
2 07056 102.7330 265.0773 0087707  22.3342 132.1877 12.24190461361055

Sigue DELTA 1 DEB en tiempo real con AllMySat

Download on the App Store